Dewpoint
-2 -3 -2 -3 -1 -2 -1 0 2 3 3 3 4 5 5 5 6 6 5 5 5 7 10 11 11 11 11 10 11 10 10 10 9 9 9 9 8 8 9 8 7 6 6 6 4 3 3 3 3 1 2 2 4 7 11 9 10 13 13 13 15 18 21
-1 -0 -2 -2 -2 -1 -0 1 2 3 3 4 4 4 5 5 7 6 6 6 6 7 9 10 11 10 11 12 11 11 10 10 10 9 9 9 9 9 9 8 8 7 6 5 5 4 4 3 2 1 3 1 1 2 7 8 9 9 10 11 14 18 19
1 1 1 1 1 0 1 2 3 4 6 6 6 6 5 5 6 7 7 7 7 7 9 10 11 11 11 11 11 11 11 11 10 10 10 9 9 9 9 8 8 7 6 5 5 5 4 3 2 1 1 1 1 4 3 4 9 8 10 12 13 14 16
1 2 2 3 2 3 2 2 3 5 6 7 7 7 8 7 7 8 10 9 10 9 10 10 10 11 11 12 11 11 10 11 11 11 11 9 9 9 8 7 7 7 6 5 5 5 4 4 2 2 2 1 2 2 3 4 9 12 12 13 13 11 12
4 3 4 3 4 3 3 4 4 5 6 7 7 7 9 11 11 11 11 10 10 12 10 10 10 11 12 12 11 11 11 11 10 11 11 11 11 10 9 8 8 7 6 5 6 5 4 4 3 3 2 3 2 3 4 8 9 9 11 14 15 15 14
6 6 5 4 4 5 5 5 5 5 6 7 7 7 9 11 11 11 11 11 10 10 11 11 11 11 12 12 11 11 11 12 11 11 10 10 10 10 9 8 7 7 6 6 6 6 5 4 4 4 3 3 3 3 3 6 8 9 11 11 11 12 14
8 7 7 6 6 7 7 7 7 7 7 7 8 10 11 11 11 11 11 11 11 11 11 11 11 11 12 12 12 12 11 12 11 11 10 10 9 9 9 9 8 7 7 6 6 5 6 5 5 4 4 4 3 3 3 2 5 6 10 11 12 13 15
10 9 8 8 7 8 9 10 10 10 10 10 10 11 11 11 11 11 11 11 11 10 11 11 11 11 12 12 13 12 12 12 11 10 10 10 9 9 8 8 8 7 8 7 5 6 5 6 6 5 5 5 4 4 4 4 3 5 6 9 11 12 13
12 11 11 10 10 10 10 10 10 10 10 10 11 11 11 11 11 11 11 10 10 10 10 10 11 11 12 13 14 15 15 14 14 11 10 10 10 9 9 8 9 9 8 6 5 6 6 7 6 6 5 5 4 4 4 5 4 5 7 9 11 11 12
14 13 11 10 11 11 10 10 10 12 15 15 11 11 11 11 11 11 10 10 9 9 10 9 10 10 12 13 14 15 15 15 16 15 12 10 10 9 9 9 8 9 9 8 7 7 7 6 6 6 6 5 5 5 5 5 4 3 5 6 8 11 12
14 13 12 11 11 11 10 10 11 15 17 18 18 13 11 11 11 10 10 9 9 8 9 9 9 9 11 12 13 14 15 15 16 17 17 16 15 13 10 9 8 8 9 8 7 7 7 7 6 7 7 6 6 5 4 4 5 6 5 5 5 5 11
13 13 12 12 12 11 11 11 14 17 18 18 18 17 12 11 10 10 10 9 9 8 8 8 9 9 9 10 11 12 13 14 15 16 17 17 16 16 16 15 10 8 8 8 8 7 7 6 6 6 7 6 5 7 7 7 7 5 4 4 5 7 6
12 13 12 12 11 11 11 11 15 18 18 18 19 19 16 11 10 9 9 9 9 8 8 8 8 9 9 9 11 11 12 12 13 15 16 16 16 16 17 17 17 16 10 8 8 7 7 8 7 6 7 8 7 8 6 7 5 5 6 5 7 8 9
12 12 12 12 11 11 11 11 14 17 18 18 18 18 16 13 10 9 8 8 8 7 7 7 7 8 8 9 10 10 11 11 12 12 13 14 15 15 16 17 18 18 16 14 9 7 7 8 8 8 8 10 11 8 6 5 6 8 10 8 8 11 11
8 10 11 12 12 11 10 10 16 17 17 18 18 17 16 14 11 9 8 7 7 7 7 7 7 7 7 9 10 10 11 11 12 11 11 12 14 15 16 16 16 16 16 15 13 10 9 8 10 10 10 10 12 11 10 10 10 12 14 15 15 14 12
11 12 12 12 11 11 10 10 17 17 17 17 18 17 13 13 10 9 7 7 7 7 7 7 7 7 7 8 10 12 15 14 11 11 10 9 10 13 15 16 17 19 19 18 16 15 13 12 11 16 12 14 14 12 12 12 14 14 13 12 8 7 8
10 11 11 11 10 10 9 9 14 16 16 17 17 15 12 13 10 8 7 6 7 7 7 8 8 7 7 7 7 10 14 16 15 10 9 8 8 10 12 13 16 19 21 21 21 21 20 19 19 19 19 19 19 18 14 12 12 12 13 11 9 9 8
9 10 11 10 9 9 9 8 11 16 16 16 17 15 12 12 12 10 8 7 8 8 8 9 10 10 8 7 7 12 14 15 14 11 9 8 8 8 9 11 14 15 17 22 22 22 22 22 21 21 21 21 21 21 20 13 12 11 12 11 11 10 9
7 9 9 9 9 11 9 8 10 15 15 16 16 13 12 12 11 10 10 9 9 9 9 9 11 11 10 9 10 14 15 16 15 13 10 9 8 8 9 10 13 15 15 16 18 19 20 20 21 21 21 21 21 22 22 16 13 11 11 9 8 8 7
9 8 8 8 9 8 9 8 7 9 15 15 16 15 12 12 10 8 7 8 8 8 9 9 10 10 13 16 15 15 16 16 18 15 12 11 9 8 8 11 12 14 15 15 15 16 18 19 20 21 21 22 22 21 22 19 16 15 13 11 10 10 9
7 6 7 8 8 7 8 7 6 7 13 14 15 15 14 11 10 8 7 6 7 6 6 7 7 8 10 13 16 16 17 17 18 18 15 12 10 10 12 14 12 13 15 15 15 15 16 17 18 18 19 20 21 21 22 22 19 17 16 14 12 11 11
5 4 6 7 7 6 6 7 7 5 10 13 14 15 15 11 9 9 7 6 5 6 6 7 7 8 9 11 14 17 18 18 18 19 17 14 18 18 19 15 15 15 15 16 16 16 16 16 17 17 18 19 19 20 21 20 20 18 17 16 15 14 13
3 4 4 4 5 4 4 5 6 8 6 10 13 14 14 14 12 15 9 6 5 5 6 7 8 9 10 12 15 16 18 19 19 19 18 20 21 20 20 18 17 17 17 18 17 17 16 17 17 17 17 18 18 18 18 20 21 20 19 18 17 17 15
2 3 3 2 2 3 3 3 3 6 8 6 10 13 14 14 14 15 10 7 5 5 6 7 8 9 12 14 15 17 18 18 18 17 20 21 21 20 20 19 19 18 17 18 18 17 17 17 17 17 17 17 18 17 17 19 21 21 20 19 18 17 18
1 1 1 1 0 0 1 2 2 1 4 7 7 11 13 14 14 13 12 9 7 7 7 9 12 12 14 15 16 17 18 17 18 19 19 19 20 20 19 20 19 19 18 18 18 18 18 17 17 17 17 17 16 18 18 19 20 22 22 21 20 18 18
-0 1 1 -0 -0 -0 0 1 1 1 1 3 5 6 10 12 12 11 11 11 10 10 9 11 12 13 12 13 13 14 16 17 18 19 19 20 20 20 20 20 19 19 18 18 18 18 18 18 18 18 17 16 16 17 18 19 19 20 21 21 20 19 19
-0 -0 -0 -1 -1 -1 -0 0 0 0 0 0 1 2 4 5 7 10 10 10 11 10 8 8 9 10 13 14 15 16 18 18 19 19 19 19 20 20 19 19 18 17 16 17 18 18 19 19 19 20 19 18 17 17 18 20 20 19 19 21 21 20 19
-0 -1 -1 -1 -1 -1 -1 -1 -1 -0 -0 0 0 0 1 2 4 6 7 8 10 11 10 9 11 11 12 14 16 16 17 18 19 19 19 19 19 19 19 19 19 19 15 15 18 19 19 18 18 19 19 19 19 19 19 21 20 19 19 20 20 18 18
1 1 1 0 -1 -1 -2 -2 -2 -1 3 2 4 2 2 3 3 4 6 9 11 11 12 12 11 10 11 12 14 15 15 16 16 17 18 18 18 17 16 16 17 16 15 14 15 14 15 14 13 13 15 19 19 19 20 20 19 19 18 19 19 18 17
2 3 2 1 1 1 -1 -2 -0 5 9 10 9 10 9 8 9 9 8 9 10 10 9 10 10 10 11 12 14 13 14 15 15 15 16 16 17 15 14 14 14 14 13 13 12 11 12 11 10 8 8 12 16 19 20 20 19 17 18 18 17 17 16
11 10 6 3 0 2 6 6 6 7 10 11 12 11 12 12 12 12 12 12 9 8 8 9 10 11 11 12 13 12 13 14 14 14 14 14 14 13 13 12 10 10 12 13 13 12 11 10 9 9 10 10 11 14 18 19 19 18 18 17 17 16 16
9 8 8 7 6 3 2 5 7 7 11 12 13 13 12 12 13 14 14 14 13 9 10 11 10 10 10 11 10 10 11 12 12 13 13 12 11 11 11 11 9 9 10 10 10 10 10 9 9 9 11 11 13 15 16 18 19 18 17 17 17 16 16
9 10 9 9 8 11 11 7 8 9 10 12 13 13 12 12 13 15 15 15 12 10 10 9 9 9 9 9 9 9 9 9 10 11 12 11 10 10 7 5 4 7 9 7 5 5 6 7 8 9 10 12 13 14 14 15 17 18 17 17 16 16 16
7 9 10 12 12 9 8 10 11 10 11 12 14 14 14 13 12 14 14 14 10 8 7 8 9 9 9 9 10 9 8 7 7 7 7 7 6 4 2 1 1 5 4 4 4 3 5 6 6 8 9 10 12 12 12 12 14 15 17 17 16 16 16
-3 3 7 7 10 9 9 8 8 9 11 13 12 13 15 14 7 6 5 6 6 6 7 7 7 7 7 7 7 6 5 4 4 4 4 3 2 2 2 2 3 3 2 2 1 1 2 4 5 5 7 8 9 10 10 11 11 11 13 14 17 17 16
-4 -1 4 7 7 9 12 10 10 10 13 15 15 13 10 3 3 2 2 2 3 3 3 4 5 5 5 5 4 4 4 4 3 2 2 2 1 1 1 2 3 3 2 1 1 1 2 2 -1 1 2 2 4 5 7 8 10 10 10 12 14 15 16